Preview of NWS' New Version of Forecast
This preview is not operational and should not be used for support decisions.

Regional Weather Roundup (RWR)

Issued by National Weather Service (NWS)

                            
000
ASCA42 TJSJ 230810
RWRPR 
PUERTO RICO/U.S. VIRGIN ISLANDS HOURLY WEATHER ROUNDUP
NATIONAL WEATHER SERVICE SAN JUAN PR
400 AM AST TUE APR 23 2019

PRZ001>002-007>008-010-230900-
PUERTO RICO
  
CITY           SKY/WX    TMP DP  RH WIND       PRES   REMARKS
SAN JUAN LMM   PTCLDY    75  66  73 CALM      29.94F                  
CEIBA          CLOUDY    77  66  69 MISG      29.95F                  
$$

VIZ001>002-230900-
U.S. VIRGIN ISLANDS
  
CITY           SKY/WX    TMP DP  RH WIND       PRES   REMARKS
CHARLOTTE AMA  CLEAR     75  66  73 CALM      29.93S                  
CHRISTIANSTED  CLEAR     70  64  83 N6        29.94F                  
$$

HOURLY WEATHER ROUNDUP FOR THE NEWS MEDIA
  
CITY           SKY/WX    TMP DP  RH WIND       PRES   REMARKS
ORLANDO        FAIR      63  56  78 NW3       30.11F                  
NEW YORK       MOCLDY    59  55  87 NW10      29.98S                  
NEWARK         MOCLDY    58  54  86 W7        29.99S                  
CHICAGO        CLOUDY    61  57  87 W14G24    29.81F                  
HARTFORD       CLOUDY    47  47 100 N7        29.85F                  
BOSTON         DRIZZLE   48  46  93 N16       29.90  FOG              
DALLAS         CLOUDY    70  60  70 S8        30.01R                  
PHILADELPHIA   FAIR      57  49  74 SW3       30.03S                  
LOS ANGELES    CLEAR     59  53  80 VRB3      29.98S                  
WASHINGTON DC  FAIR      49  45  86 CALM      30.05F